Regional Weather Roundup
Issued by NWS Newport/Morehead, NC

Home | Current Version | Previous Version | Text Only | Print | Product List | Glossary On
Versions: 1 2 3 4 5 6 7 8 9 10 11 12 13 14 15 16 17 18 19 20 21 22 23 24 25 26 27 28 29 30 31 32 33 34 35 36 37 38 39 40 41 42 43 44 45 46 47 48 49 50
000
ASUS42 KMHX 161325
RWRMHX
WEATHER ROUNDUP FOR EASTERN NORTH CAROLINA
NATIONAL WEATHER SERVICE NEWPORT/MOREHEAD CITY NC
800 AM EST SAT DEC 16 2017

NOTE: "FAIR" INDICATES FEW OR NO CLOUDS BELOW 12,000 FEET
WITH NO SIGNIFICANT WEATHER AND/OR OBSTRUCTIONS TO VISIBILITY

NCZ015>017-031-032-045>047-102-103-161400-
NORTH COAST

CITY           SKY/WX    TMP DP  RH WIND       PRES   REMARKS
EDENTON        CLEAR     32  27  83 CALM      30.25R
ELIZABETH CITY CLEAR     28  25  88 NW5       30.25R
KITTY HAWK     SUNNY     34  25  70 CALM      30.22R
MANTEO         CLEAR     36  25  64 N7        30.25R

$$

NCZ045>047-081-094-103-104-161400-
CENTRAL COAST

CITY           SKY/WX    TMP DP  RH WIND       PRES   REMARKS
FRISCO         CLEAR     39  28  64 VRB6      30.23R

$$

NCZ095-097-098-100-101-161400-
SOUTHERN COAST

CITY           SKY/WX    TMP DP  RH WIND       PRES   REMARKS
BEAUFORT       CLEAR     36  26  67 N8        30.27R
CEDAR ISLAND   NOT AVBL
JACKSONVILLE   CLOUDY    31  27  85 W3        30.28R
PINEY ISLAND     N/A    N/A N/A N/A NW8       30.26R
WILMINGTON     MOCLDY    31  29  92 CALM      30.29R


$$

NCZ011>013-027>030-043-044-078>080-089-090>093-098-161400-
COASTAL PLAIN

CITY           SKY/WX    TMP DP  RH WIND       PRES   REMARKS
AHOSKIE        CLEAR     24  22  92 CALM      30.25R
CLINTON        CLOUDY    28  28 100 CALM      30.29R
ELIZABETHTOWN  NOT AVBL
GOLDSBORO      CLEAR     29  24  81 CALM      30.25R
GREENVILLE     CLEAR     30  27  86 CALM      30.26R
HAVELOCK       CLEAR     30  26  85 W3        30.28R
KENANSVILLE    CLOUDY    27  23  86 SW3       30.28R
KINSTON        CLEAR     27  25  93 SW3       30.27R
NEW BERN       CLEAR     29  26  89 SW3       30.28R
RICHLANDS      CLOUDY    29  27  92 SW3       30.28R
ROCKY MOUNT    CLEAR     26  22  84 S3        30.25R
WASHINGTON     CLEAR     31  24  76 CALM      30.26R
WHITEVILLE     CLOUDY    31  28  90 CALM      30.29R

$$

AMZ130-135-150-152-154-156-158-170-250-252-270-ANZ085-086-088-633-658-670-161400-
MARINE OBSERVATIONS

STATION/POSITION TIME  TEMP    WIND        PRES    WAVE   SWELL
                       AIR SEA DIR/SP/G            HT/PER HT/PER
                 (UTC) (F)     (DEG/KT/KT) (MB)    (FT/S) (FT/S)
CHESAPEAKE LIGHT NOT AVBL
64 E VA BEACH    1250   43 57  320/ 14/ 17 1022.8    6/ 8   5/ 8
DUCK             1300   34 51  310/ 10/ 12 1023.2
2 E DUCK         1300      54                N/A     3/ 6
OREGON INLET     1300   37 47  310/  9/ 12 1023.7
13E OREGON INLT  1248      60                N/A     4/ 7   3/ 7
HATTERAS CG      1300   39 52  340/ 14/ 16 1023.6
DIAMOND BUOY     1310   43 72  340/ 14/ 19 1023.9
CAPE LOOKOUT     1300          350/ 11/ 13 1024.9
BEAUFORT LAB     1300   37 51  310/  5/  7 1024.8
30 SE NEW RVR IN 1308   44 64   20/ 12/ 17 1025.1
30 SE NEW RVR IN 1300      64                N/A     4/ 4
27 SE WRIGHTSVLE 1308   45 63   10/ 16/ 27 1024.9
5 SE WRIGHTSVLE  1308   41 56  360/ 10/ 16 1024.8
225 S CAPE HAT   1250   65 74  350/ 14/ 19 1020.9    7/ 8   7/ 8
41 SE CHARLESTON 1310   52 72   10/ 10/ 14 1024.4

$$




USA.gov is the U.S. government's official web portal to all federal, state and local government web resources and services.